Location: Newark
(34.1333°N, 7.9667°W)
Time: 01:55:51
(UTC+00:00)

A-11 Canister half - Visible Passes

Search period start: 04 December 2021 00:00
Search period end: 14 December 2021 00:00
Orbit: 1516 x 1684 km, 47.2° (Epoch: 03 December)

Date Brightness Start Highest point End Pass type
(mag) Time Alt. Az. Time Alt. Az. Time Alt. Az.
04 Dec 10.5 05:08:02 10° S 05:16:05 32° SE 05:24:20 10° ENE visible
05 Dec 10.6 04:45:28 10° S 04:53:13 30° SE 05:01:12 10° ENE visible
05 Dec 9.1 06:47:48 10° SW 06:57:23 85° NW 07:07:23 10° NE visible
06 Dec 10.6 04:22:54 10° S 04:30:23 27° SE 04:38:04 10° ENE visible
06 Dec 9.1 06:24:54 10° SW 06:34:27 88° NW 06:44:25 10° NE visible
07 Dec 10.6 04:00:23 10° S 04:07:34 25° SE 04:14:53 10° ENE visible
07 Dec 9.1 06:02:00 10° SW 06:11:31 87° SE 06:21:26 10° NE visible
08 Dec 10.7 03:38:59 13° SSE 03:44:44 23° SE 03:51:40 10° ENE visible
08 Dec 9.1 05:39:07 10° SW 05:48:36 83° SE 05:58:29 10° NE visible
09 Dec 10.7 03:19:20 19° SE 03:21:54 21° SE 03:28:26 10° E visible
09 Dec 9.1 05:17:41 16° SW 05:25:41 79° SE 05:35:30 10° NE visible
10 Dec 10.8 02:59:12 19° ESE 02:59:12 19° ESE 03:05:08 10° E visible
10 Dec 9.1 04:57:31 31° SW 05:02:46 75° SE 05:12:32 10° ENE visible
11 Dec 11.0 02:38:44 15° ESE 02:38:44 15° ESE 02:41:46 10° E visible
11 Dec 9.1 04:37:01 49° SSW 04:39:53 71° SE 04:49:33 10° ENE visible
11 Dec 9.3 06:36:07 10° W 06:45:18 50° NNW 06:54:52 10° NE visible
12 Dec 11.2 02:18:01 11° E 02:18:01 11° E 02:18:18 10° E visible
12 Dec 9.1 04:16:17 65° SSE 04:16:59 66° SE 04:26:34 10° ENE visible
12 Dec 9.3 06:14:33 16° W 06:22:18 51° NNW 06:31:53 10° NE visible
13 Dec 9.3 03:55:22 58° ESE 03:55:22 58° ESE 04:03:34 10° ENE visible
13 Dec 9.2 05:53:37 25° W 05:59:18 53° NNW 06:08:53 10° NE visible
